Weather History for Erie, CO

Change the Weather History Date:

Tuesday, March 27, 2012

  Actual Average (KBJC) Record (KBJC)
Temperature  
Mean Temperature 52 °F -  
Max Temperature 69 °F 53 °F 77 °F (1986)
Min Temperature 35 °F 32 °F 14 °F (2009)
Degree Days  
Heating Degree Days 13    
Growing Degree Days 2 (Base 50)    
Moisture  
Dew Point 13 °F    
Average Humidity 20    
Maximum Humidity 44    
Minimum Humidity 11    
Precipitation  
Precipitation 0.00 in - - ()
Sea Level Pressure  
Sea Level Pressure 29.93 in    
Wind  
Wind Speed 14 mph (SSE)    
Max Wind Speed 28 mph    
Max Gust Speed 34 mph    
Visibility 10 miles    
Events      
Averages and records for this station are not official NWS values.
T = Trace of Precipitation, MM = Missing Value Source: NWS Daily Summary

Daily Weather History Graph

Daily Weather History Graph

Search for Another Location

Airport:

Trip Planner

Search our weather history database for the weather conditions in past years. The results will help you decide how hot, cold, wet, or windy it might be!

Date:

Astronomy

Mar. 27, 2012 Rise Set
Actual Time 6:51 AM MDT 7:19 PM MDT
Civil Twilight 6:24 AM MDT 7:47 PM MDT
Nautical Twilight 5:52 AM MDT 8:19 PM MDT
Astronomical Twilight 5:19 AM MDT 8:52 PM MDT
Moon 9:23 AM MDT (3/27) No Moon Set
Length of Visible Light 13h 22m
Length of Day
12h 28m
Waxing Crescent, 22% of the Moon is Illuminated
Mar 27
Waxing Crescent
Mar 30
First Quarter
Apr 6
Full
Apr 13
Last Quarter
Apr 21
New

Hourly Weather History & Observations

Time (MDT) Temp. Windchill Dew Point Humidity Pressure Visibility Wind Dir Wind Speed Gust Speed Precip Events Conditions
12:15 AM 53.6 °F - 10.4 °F 18% 29.79 in 10.0 mi WNW 15.0 mph 31.1 mph N/A   Clear
12:35 AM 53.6 °F - 10.4 °F 18% 29.80 in 10.0 mi West 18.4 mph 25.3 mph N/A   Clear
12:55 AM 51.8 °F - 10.4 °F 19% 29.81 in 10.0 mi West 16.1 mph 28.8 mph N/A   Clear
1:15 AM 53.6 °F - 8.6 °F 16% 29.81 in 10.0 mi West 21.9 mph 33.4 mph N/A   Clear
1:35 AM 53.6 °F - 8.6 °F 16% 29.81 in 10.0 mi West 18.4 mph 34.5 mph N/A   Clear
1:55 AM 53.6 °F - 10.4 °F 18% 29.82 in 10.0 mi West 25.3 mph 31.1 mph N/A   Clear
2:15 AM 53.6 °F - 10.4 °F 18% 29.83 in 10.0 mi West 24.2 mph 31.1 mph N/A   Clear
2:35 AM 53.6 °F - 10.4 °F 18% 29.83 in 10.0 mi West 18.4 mph 31.1 mph N/A   Clear
2:55 AM 53.6 °F - 8.6 °F 16% 29.84 in 10.0 mi West 25.3 mph 32.2 mph N/A   Clear
3:15 AM 53.6 °F - 8.6 °F 16% 29.85 in 10.0 mi WNW 27.6 mph 34.5 mph N/A   Clear
3:35 AM 53.6 °F - 8.6 °F 16% 29.85 in 10.0 mi West 24.2 mph 33.4 mph N/A   Clear
3:55 AM 53.6 °F - 10.4 °F 18% 29.85 in 10.0 mi West 24.2 mph 34.5 mph N/A   Clear
4:15 AM 53.6 °F - 10.4 °F 18% 29.86 in 10.0 mi West 18.4 mph 29.9 mph N/A   Clear
4:35 AM 53.6 °F - 10.4 °F 18% 29.87 in 10.0 mi West 13.8 mph 23.0 mph N/A   Clear
4:55 AM 48.2 °F - 12.2 °F 24% 29.90 in 10.0 mi South 10.4 mph 21.9 mph N/A   Clear
5:15 AM 44.6 °F 43.1 °F 12.2 °F 27% 29.91 in 10.0 mi South 3.5 mph - N/A   Clear
5:35 AM 42.8 °F 40.1 °F 14.0 °F 31% 29.92 in 10.0 mi SW 4.6 mph - N/A   Clear
5:55 AM 42.8 °F 39.3 °F 14.0 °F 31% 29.94 in 10.0 mi South 5.8 mph - N/A   Clear
6:15 AM 41.0 °F 36.4 °F 14.0 °F 33% 29.94 in 10.0 mi South 6.9 mph - N/A   Clear
6:35 AM 37.4 °F 32.8 °F 14.0 °F 38% 29.96 in 10.0 mi SSW 5.8 mph - N/A   Clear
6:55 AM 35.6 °F 32.8 °F 14.0 °F 41% 29.96 in 10.0 mi SW 3.5 mph - N/A   Clear
7:15 AM 35.6 °F 31.7 °F 15.8 °F 44% 29.97 in 10.0 mi SW 4.6 mph - N/A   Clear
7:35 AM 39.2 °F 34.2 °F 14.0 °F 36% 29.98 in 10.0 mi South 6.9 mph - N/A   Clear
7:55 AM 44.6 °F 41.4 °F 15.8 °F 31% 29.99 in 10.0 mi South 5.8 mph 9.2 mph N/A   Clear
8:15 AM 46.4 °F 40.1 °F 15.8 °F 29% 29.99 in 10.0 mi SE 15.0 mph 21.9 mph N/A   Clear
8:35 AM 48.2 °F - 15.8 °F 27% 29.99 in 10.0 mi SE 9.2 mph 21.9 mph N/A   Clear
8:55 AM 50.0 °F - 15.8 °F 26% 29.99 in 10.0 mi ESE 15.0 mph 19.6 mph N/A   Clear
9:15 AM 51.8 °F - 15.8 °F 24% 29.99 in 10.0 mi ESE 20.7 mph 24.2 mph N/A   Clear
9:35 AM 51.8 °F - 17.6 °F 26% 29.99 in 10.0 mi SE 15.0 mph - N/A   Clear
9:55 AM 53.6 °F - 17.6 °F 24% 30.00 in 10.0 mi ESE 12.7 mph 18.4 mph N/A   Clear
10:15 AM 55.4 °F - 17.6 °F 23% 30.01 in 10.0 mi SE 11.5 mph - N/A   Clear
10:35 AM 55.4 °F - 17.6 °F 23% 30.01 in 10.0 mi ESE 8.1 mph - N/A   Clear
10:55 AM 59.0 °F - 17.6 °F 20% 30.01 in 10.0 mi SE 9.2 mph - N/A   Clear
11:15 AM 60.8 °F - 17.6 °F 19% 30.00 in 10.0 mi ESE 11.5 mph - N/A   Clear
11:35 AM 60.8 °F - 15.8 °F 17% 30.00 in 10.0 mi ESE 13.8 mph 17.3 mph N/A   Clear
11:55 AM 62.6 °F - 15.8 °F 16% 29.99 in 10.0 mi ESE 11.5 mph 16.1 mph N/A   Clear
12:15 PM 62.6 °F - 14.0 °F 15% 29.99 in 10.0 mi East 8.1 mph 17.3 mph N/A   Clear
12:35 PM 64.4 °F - 14.0 °F 14% 29.99 in 10.0 mi East 11.5 mph 20.7 mph N/A   Clear
12:55 PM 64.4 °F - 12.2 °F 13% 29.98 in 10.0 mi SE 9.2 mph 20.7 mph N/A   Clear
1:15 PM 68.0 °F - 14.0 °F 12% 29.97 in 10.0 mi South 15.0 mph 20.7 mph N/A   Clear
1:35 PM 68.0 °F - 12.2 °F 12% 29.96 in 10.0 mi ESE 10.4 mph 17.3 mph N/A   Clear
1:55 PM 68.0 °F - 12.2 °F 12% 29.96 in 10.0 mi ESE 10.4 mph - N/A   Clear
2:15 PM 68.0 °F - 12.2 °F 12% 29.96 in 10.0 mi ESE 3.5 mph - N/A   Clear
2:35 PM 69.8 °F - 12.2 °F 11% 29.96 in 10.0 mi South 5.8 mph - N/A   Clear
2:55 PM 69.8 °F - 12.2 °F 11% 29.95 in 10.0 mi ESE 5.8 mph - N/A   Clear
3:15 PM 69.8 °F - 12.2 °F 11% 29.94 in 10.0 mi NNE 6.9 mph - N/A   Clear
3:35 PM 68.0 °F - 12.2 °F 12% 29.94 in 10.0 mi East 9.2 mph 16.1 mph N/A   Clear
3:55 PM 69.8 °F - 12.2 °F 11% 29.94 in 10.0 mi ENE 6.9 mph - N/A   Clear
4:15 PM 69.8 °F - 12.2 °F 11% 29.93 in 10.0 mi ENE 5.8 mph - N/A   Clear
4:35 PM 69.8 °F - 12.2 °F 11% 29.93 in 10.0 mi ENE 8.1 mph - N/A   Clear
4:55 PM 68.0 °F - 12.2 °F 12% 29.93 in 10.0 mi East 9.2 mph - N/A   Clear
5:15 PM 68.0 °F - 12.2 °F 12% 29.93 in 10.0 mi East 8.1 mph - N/A   Clear
5:35 PM 68.0 °F - 12.2 °F 12% 29.93 in 10.0 mi East 8.1 mph - N/A   Clear
5:55 PM 66.2 °F - 12.2 °F 12% 29.94 in 10.0 mi East 8.1 mph - N/A   Clear
6:15 PM 66.2 °F - 12.2 °F 12% 29.94 in 10.0 mi East 8.1 mph - N/A   Clear
6:35 PM 64.4 °F - 15.8 °F 15% 29.95 in 10.0 mi East 6.9 mph - N/A   Clear
6:55 PM 62.6 °F - 19.4 °F 19% 29.96 in 10.0 mi East 10.4 mph - N/A   Clear
7:15 PM 60.8 °F - 19.4 °F 20% 29.96 in 10.0 mi East 9.2 mph - N/A   Clear
7:35 PM 60.8 °F - 19.4 °F 20% 29.96 in 10.0 mi East 6.9 mph - N/A   Clear
7:55 PM 59.0 °F - 21.2 °F 23% 29.96 in 10.0 mi East 6.9 mph - N/A   Clear
8:15 PM 59.0 °F - 19.4 °F 22% 29.97 in 10.0 mi East 10.4 mph - N/A   Clear
8:35 PM 59.0 °F - 19.4 °F 22% 29.97 in 10.0 mi East 5.8 mph - N/A   Clear
8:55 PM 57.2 °F - 21.2 °F 25% 29.99 in 10.0 mi West 4.6 mph - N/A   Clear
9:15 PM 57.2 °F - 19.4 °F 23% 30.00 in 10.0 mi NW 8.1 mph - N/A   Clear
9:35 PM 51.8 °F - 21.2 °F 30% 30.00 in 10.0 mi Calm Calm - N/A   Clear
9:55 PM 50.0 °F - 21.2 °F 32% 30.00 in 10.0 mi Calm Calm - N/A   Clear
10:15 PM 46.4 °F - 21.2 °F 37% 30.00 in 10.0 mi Calm Calm - N/A   Clear
10:35 PM 44.6 °F - 23.0 °F 43% 30.00 in 10.0 mi Calm Calm - N/A   Clear
10:55 PM 44.6 °F - 23.0 °F 43% 30.00 in 10.0 mi Calm Calm - N/A   Clear
11:15 PM 44.6 °F - 23.0 °F 43% 30.00 in 10.0 mi Calm Calm - N/A   Clear
11:35 PM 42.8 °F 41.1 °F 23.0 °F 46% 30.00 in 10.0 mi South 3.5 mph - N/A   Clear
11:55 PM 42.8 °F 40.1 °F 24.8 °F 49% 30.01 in 10.0 mi South 4.6 mph - N/A   Clear